Shirley, NY

12:43 PM EST on November 18, 2017 (GMT -0500)
Brookhaven

Weather History for KHWV - January, 2013

Change the Weather History Date:

Wednesday, January 2, 2013

  Actual Average (KISP) Record (KISP)
Temperature  
Mean Temperature 28 °F -  
Max Temperature 32 °F 39 °F 57 °F (2000)
Min Temperature 23 °F 25 °F 8 °F (1999)
Degree Days  
Heating Degree Days 38    
Moisture  
Dew Point 13 °F    
Average Humidity 54    
Maximum Humidity 63    
Minimum Humidity 45    
Precipitation  
Precipitation 0.00 in - - ()
Sea Level Pressure  
Sea Level Pressure 30.06 in    
Wind  
Wind Speed 8 mph (WNW)    
Max Wind Speed 16 mph    
Max Gust Speed 23 mph    
Visibility 10 miles    
Events      
Averages and records for this station are not official NWS values.
T = Trace of Precipitation, MM = Missing Value Source: NWS Daily Summary

Daily Weather History Graph

Daily Weather History Graph

Search for Another Location

Airport or City:

Trip Planner

Search our weather history database for the weather conditions in past years. The results will help you decide how hot, cold, wet, or windy it might be!

Date:

Astronomy

Jan. 02, 2013 Rise Set
Actual Time 7:15 AM EST 4:35 PM EST
Civil Twilight 6:45 AM EST 5:06 PM EST
Nautical Twilight 6:10 AM EST 5:40 PM EST
Astronomical Twilight 5:37 AM EST 6:14 PM EST
Moon 10:07 PM EST (1/2) 9:54 AM EST (1/2)
Length of Visible Light 10h 21m
Length of Day
9h 19m
Waning Gibbous, 75% of the Moon is Illuminated
Jan 2
Waning Gibbous
Jan 4
Last Quarter
Jan 11
New
Jan 18
First Quarter
Jan 26
Full

Hourly Weather History & Observations

Time (EST) Temp. Windchill Dew Point Humidity Pressure Visibility Wind Dir Wind Speed Gust Speed Precip Events Conditions
12:56 AM 28.0 °F 20.0 °F 14.0 °F 56% 29.98 in 10.0 mi NNW 8.1 mph - N/A   Clear
1:56 AM 27.0 °F 20.5 °F 14.0 °F 58% 30.00 in 10.0 mi NW 5.8 mph - N/A   Clear
2:56 AM 27.0 °F 20.5 °F 12.0 °F 53% 30.00 in 10.0 mi NW 5.8 mph - N/A   Clear
3:56 AM 26.1 °F 20.5 °F 12.0 °F 55% 30.00 in 10.0 mi NNW 4.6 mph - N/A   Clear
4:56 AM 25.0 °F 14.8 °F 10.0 °F 53% 30.02 in 10.0 mi NNW 10.4 mph - N/A   Clear
5:56 AM 24.1 °F 15.2 °F 10.0 °F 55% 30.01 in 10.0 mi NNW 8.1 mph - N/A   Clear
6:56 AM 23.0 °F 17.0 °F 10.9 °F 60% 30.02 in 10.0 mi NNW 4.6 mph - N/A   Clear
7:56 AM 23.0 °F 18.4 °F 12.0 °F 63% 30.02 in 10.0 mi WNW 3.5 mph - N/A   Clear
8:56 AM 25.0 °F 15.5 °F 12.0 °F 58% 30.05 in 10.0 mi NW 9.2 mph - N/A   Clear
9:56 AM 28.0 °F 18.6 °F 10.9 °F 49% 30.07 in 10.0 mi WNW 10.4 mph 16.1 mph N/A   Clear
10:56 AM 28.9 °F 17.3 °F 10.9 °F 47% 30.06 in 10.0 mi WNW 16.1 mph - N/A   Clear
11:56 AM 30.0 °F 19.1 °F 10.9 °F 45% 30.02 in 10.0 mi WNW 15.0 mph 23.0 mph N/A   Clear
12:56 PM 30.0 °F 20.0 °F 12.0 °F 47% 30.00 in 10.0 mi West 12.7 mph - N/A   Clear
1:56 PM 30.9 °F 20.7 °F 14.0 °F 50% 30.01 in 10.0 mi WNW 13.8 mph - N/A   Clear
2:56 PM 32.0 °F 23.6 °F 15.1 °F 50% 30.04 in 10.0 mi WNW 10.4 mph - N/A   Clear
3:56 PM 30.9 °F 21.7 °F 15.1 °F 52% 30.04 in 10.0 mi WNW 11.5 mph - N/A   Clear
4:56 PM 30.9 °F 22.2 °F 14.0 °F 50% 30.07 in 10.0 mi NW 10.4 mph - N/A   Clear
5:56 PM 30.0 °F 22.4 °F 15.1 °F 54% 30.10 in 10.0 mi NW 8.1 mph - N/A   Clear
6:56 PM 30.0 °F 24.1 °F 15.1 °F 54% 30.12 in 10.0 mi West 5.8 mph - N/A   Scattered Clouds
7:56 PM 30.0 °F 26.5 °F 16.0 °F 56% 30.12 in 10.0 mi West 3.5 mph - N/A   Mostly Cloudy
8:56 PM 28.9 °F 23.9 °F 16.0 °F 58% 30.13 in 10.0 mi West 4.6 mph - N/A   Mostly Cloudy
9:56 PM 28.0 °F 24.2 °F 16.0 °F 61% 30.15 in 10.0 mi West 3.5 mph - N/A   Clear
10:56 PM 28.9 °F 22.8 °F 17.1 °F 61% 30.15 in 10.0 mi West 5.8 mph - N/A   Mostly Cloudy
11:56 PM 28.0 °F 21.7 °F 17.1 °F 63% 30.16 in 10.0 mi West 5.8 mph - N/A   Clear